ZGGG

Guangzhou Baiyun International Airport

Airport
ICAO code
ZGGG
IATA Code
CAN
Summary
ICAO Region
APAC
ICAO Territory
Location

Guangzhou, Guangdong

Serving
Guangzhou
Elevation
50 ft
Coordinates
23° 23' 33" N , 113° 17' 56" E
KCC
Metar
Observation
ZGGG 090630Z 20002MPS 160V230 9999 BKN030 24/19 Q1014 NOSIG
Station
Guangzhou
Date/Time
2023-02-09 07:30:00
Wind direction
200°
Lowest cloud amount
broken clouds
Temperature
24°C
Dew point
19°C
Humidity
73%
QNH
1014 hPa
Weather condition
n/a

Guangzhou Baiyun International Airport is the main airport of Guangzhou, the capital of the province of Guangdong, People's Republic of China.

Climatology

Within the Köppen Climate Classification System, ((Koppen climate classification Cwa)) this climate type generally has warm and humid summers with mild winters. Its extent is from 30 to 50° of latitude mainly on the eastern and western borders of most continents. During the winter, the main weather feature is the mid-latitude cyclone. Convective thunderstorms provide precipitation in the summer months.

Airport map

Aerial View

SKYbrary Partners:

Safety knowledge contributed by: